Theta_e
302 302 302 303 303 302 302 302 302 302 302 301 300 300 300 300 299 299 300 299 299 299 299 300 300 300 300 300 300 300 300 300 300 301 301 301 300 300 300 300 300 300 300 301 301 301 301 301 301 301 301 302 301 301 301 302 302 302 302 302 302 302 302 302 301 301 301 301 302
301 302 302 303 304 303 302 302 302 302 302 301 301 300 300 299 299 299 299 299 299 300 300 300 300 300 300 300 301 301 301 300 300 300 300 300 299 299 299 300 299 300 300 301 301 301 301 301 301 301 301 302 301 301 301 302 302 302 302 302 302 302 302 302 301 302 302 302 303
301 301 301 302 301 301 301 301 300 300 300 299 300 300 300 300 299 299 299 299 300 300 300 300 300 300 300 300 301 301 301 301 300 300 300 299 299 299 299 299 299 300 301 301 301 301 301 301 302 302 302 302 301 301 301 302 302 302 302 302 302 302 302 302 302 303 303 304 304
300 300 300 300 299 299 299 299 299 299 298 299 299 300 300 300 300 300 300 300 300 300 300 300 301 301 301 301 301 301 301 302 301 300 300 299 300 300 300 300 300 300 301 301 301 301 302 302 302 302 302 301 301 301 302 302 302 302 302 302 302 302 303 303 304 304 304 304 304
299 299 299 299 299 298 298 299 299 299 299 299 300 300 300 300 300 300 300 301 300 300 300 300 301 302 302 302 301 301 301 301 302 301 300 300 300 300 301 301 301 301 301 301 302 302 302 302 302 303 302 302 302 302 302 302 302 302 302 302 303 303 304 304 304 304 304 304 303
299 299 299 299 299 299 299 299 299 299 299 300 299 299 299 300 300 300 300 300 299 299 300 300 301 302 302 301 301 301 300 300 301 301 301 300 301 301 301 301 301 301 302 302 302 302 302 302 303 303 302 302 303 302 302 302 302 302 302 302 303 304 304 303 304 304 303 302 302
299 299 298 298 299 299 299 300 300 301 300 300 300 299 299 299 299 299 299 299 299 299 300 301 301 301 301 301 301 301 301 301 301 301 301 301 302 301 301 301 301 302 302 302 302 302 303 303 303 303 303 303 303 302 302 302 302 302 302 302 303 304 303 303 303 303 302 302 301
299 299 298 298 298 299 299 301 301 300 300 299 299 299 299 298 298 299 299 299 299 299 300 301 300 301 301 301 301 301 301 301 302 302 302 302 302 302 302 302 302 302 302 302 302 303 303 303 302 302 302 302 302 302 302 302 302 302 302 302 303 304 304 303 303 302 302 301 301
299 299 299 299 299 299 299 300 300 300 299 299 298 298 298 298 299 299 299 299 300 300 300 301 301 301 301 301 301 301 302 301 302 302 302 302 302 302 302 302 302 302 302 302 302 302 302 302 302 302 302 302 302 302 302 302 302 302 302 303 303 303 303 303 303 302 301 301 300
298 298 299 299 299 299 299 299 299 299 299 298 298 298 299 300 300 300 299 300 300 301 301 301 301 301 301 301 301 302 302 302 302 302 302 302 302 302 302 302 301 301 302 302 302 302 302 302 302 301 302 302 301 302 302 302 302 302 302 303 303 303 302 302 302 302 301 301 301
298 298 298 298 299 299 299 299 299 299 299 298 298 298 299 300 300 300 300 301 301 301 301 301 301 301 301 301 301 302 302 302 302 302 302 302 302 302 302 302 301 301 301 302 302 302 302 302 301 301 301 301 302 302 302 302 302 302 302 302 302 302 301 301 302 301 301 301 301
297 298 298 299 299 299 299 299 299 298 299 298 298 298 298 299 299 300 300 301 301 300 300 301 301 301 301 301 301 302 302 302 302 302 301 301 301 301 301 302 301 301 301 301 301 302 301 301 301 301 301 301 301 302 302 302 302 302 301 301 301 301 301 301 301 301 301 301 300
297 297 298 298 299 299 299 299 298 298 298 298 298 298 298 299 300 300 301 300 300 300 300 300 301 301 301 301 301 301 302 302 302 301 301 301 301 301 301 301 301 301 301 301 301 301 301 301 301 300 300 300 301 301 301 301 301 301 301 300 300 300 300 300 301 301 301 301 300
296 296 297 298 298 299 298 298 298 298 298 298 298 298 298 299 300 300 300 300 300 300 300 300 300 301 301 301 301 301 301 302 302 301 301 301 301 301 301 301 301 301 301 301 301 301 300 300 300 300 300 300 300 301 301 301 301 301 301 300 300 300 300 301 301 301 301 301 300
296 296 296 297 298 298 298 297 297 297 297 297 298 298 298 298 299 300 300 300 300 300 300 300 300 301 301 301 301 301 302 302 301 301 301 301 301 301 301 301 301 301 301 300 301 301 300 300 300 300 300 300 300 300 301 301 301 301 301 300 300 301 301 301 301 301 301 301 300
295 295 296 296 297 297 297 297 297 297 297 297 297 297 297 298 299 300 300 300 300 301 300 300 300 301 301 302 302 302 302 301 301 301 300 300 300 300 300 300 300 300 300 300 300 300 301 301 301 300 300 300 300 300 301 301 301 301 301 301 301 301 301 302 302 302 301 301 300
295 295 295 295 296 296 296 296 296 297 297 297 297 297 298 298 298 300 301 301 301 300 300 300 301 301 301 301 302 301 301 300 300 300 300 300 300 300 300 300 300 300 300 300 300 300 300 301 301 301 301 300 300 300 301 301 301 301 301 301 301 302 302 302 302 302 301 301 301
294 295 295 295 295 295 295 296 296 296 296 296 297 297 298 298 298 299 300 300 300 299 299 300 300 300 300 300 300 300 301 300 300 300 300 300 300 300 300 300 300 300 300 300 300 300 300 300 301 301 301 301 301 301 301 301 301 301 301 302 302 302 302 303 302 302 302 301 301
294 294 295 295 295 295 295 296 296 296 296 296 297 297 297 297 298 298 298 299 299 299 299 299 299 299 300 300 300 300 301 300 300 300 300 300 300 300 300 300 300 300 300 300 300 300 300 300 300 300 300 300 300 301 301 301 301 301 302 302 302 302 303 303 302 302 302 302 301
294 294 294 295 295 295 295 296 296 296 296 296 296 297 297 297 297 297 298 298 299 299 299 299 299 299 299 300 300 300 300 300 300 300 300 300 300 300 300 300 300 300 300 300 300 300 300 300 300 300 300 300 300 300 300 300 301 301 302 302 303 303 303 303 302 302 302 302 301
294 294 295 295 295 295 295 295 295 295 296 296 296 296 297 297 297 297 298 298 299 299 299 298 298 299 299 299 299 299 300 300 300 300 300 300 300 300 301 301 300 300 300 300 300 300 300 300 300 300 300 300 300 300 300 301 301 301 302 302 303 303 303 303 302 302 302 301 302
294 295 295 295 295 295 295 295 296 295 296 296 296 296 296 297 297 297 298 299 299 298 298 298 298 299 299 299 299 299 299 300 300 300 300 300 300 301 301 301 300 300 300 300 300 300 300 300 300 300 300 300 300 300 300 301 301 301 302 302 302 302 302 302 302 301 301 302 302
295 295 295 295 295 296 296 296 296 296 296 296 296 296 297 297 297 297 298 298 298 298 298 298 298 298 298 299 298 299 299 299 299 299 300 300 300 300 300 300 300 299 299 299 299 299 299 300 300 300 300 300 300 300 301 301 302 301 301 301 301 301 301 301 301 301 301 301 302
295 295 295 296 296 295 296 296 295 295 295 296 296 296 296 297 297 297 297 297 297 297 297 298 298 298 298 298 298 298 298 298 298 298 299 299 300 300 300 299 299 299 299 300 300 301 301 301 300 300 300 300 300 300 301 301 301 301 301 301 300 300 300 301 301 301 301 301 302
295 295 295 296 295 295 295 295 295 295 295 296 296 296 296 296 297 297 297 297 297 297 297 297 297 297 297 297 297 298 298 298 298 298 298 298 299 299 299 299 299 299 300 301 304 305 305 304 303 301 301 300 301 301 301 301 301 301 301 300 300 300 300 300 300 300 301 301 301
295 295 295 295 295 295 295 295 295 295 295 296 296 296 296 296 296 296 296 296 296 296 296 296 296 297 298 297 297 297 297 297 297 297 297 298 298 298 298 299 299 299 300 303 305 306 306 306 305 304 303 301 301 301 301 301 301 301 301 300 300 300 300 299 299 300 300 301 302
295 295 295 295 295 295 295 295 295 295 295 296 296 296 296 296 296 296 296 295 295 296 296 296 296 297 298 297 296 296 296 296 297 297 297 297 297 297 298 298 299 299 301 304 306 306 306 306 306 306 304 302 301 301 301 301 301 301 301 300 300 300 300 299 299 299 300 301 302
295 295 295 295 295 295 295 295 295 295 295 295 295 296 296 296 296 295 295 295 295 295 295 295 296 296 296 296 295 295 295 296 296 297 297 297 297 297 297 298 298 299 302 305 306 306 306 307 307 307 306 304 302 302 301 301 301 300 300 300 300 300 300 300 300 300 300 301 302
294 295 294 294 294 295 295 295 295 295 295 295 295 296 296 295 295 295 295 295 295 295 295 295 296 296 296 296 295 296 296 296 296 296 296 296 296 297 297 297 298 300 302 306 306 306 306 307 307 307 306 306 303 302 301 301 301 300 300 300 300 300 300 300 300 300 301 301 302
295 294 294 294 294 294 294 295 295 295 295 295 295 295 295 295 294 294 294 294 294 295 295 296 296 296 295 295 296 296 295 295 296 295 295 296 296 296 297 298 298 299 302 305 306 306 306 306 306 307 307 306 304 303 301 301 301 300 300 300 300 300 300 300 300 301 301 301 302
294 294 294 294 294 294 294 294 295 295 295 295 295 294 294 294 294 294 294 294 295 296 296 296 296 295 295 295 295 295 295 295 295 295 295 295 296 297 297 297 297 299 301 305 305 306 306 306 306 307 306 306 305 303 302 301 301 300 300 300 300 300 300 300 301 301 301 302 302
294 294 294 294 294 294 295 295 295 295 295 294 294 294 294 294 294 294 294 295 295 295 296 295 295 295 295 295 295 295 295 295 295 296 296 297 296 296 297 297 297 299 301 305 305 306 306 306 306 306 306 306 305 303 302 301 301 300 300 300 300 300 301 301 301 301 301 302 303
294 294 294 294 294 294 295 295 295 294 294 294 294 294 294 293 294 294 294 295 295 295 295 295 295 295 295 295 295 295 295 295 296 296 297 297 297 296 297 297 297 299 302 305 305 306 306 306 306 306 306 306 305 303 301 301 301 300 300 300 300 301 301 301 301 302 302 303 305
294 294 294 294 294 294 294 294 294 294 293 293 293 293 294 293 294 294 294 295 295 295 295 295 295 295 295 295 295 295 295 296 296 296 296 296 296 296 296 296 297 300 303 305 305 306 306 306 306 306 306 306 304 302 301 300 300 300 300 300 300 301 301 302 302 303 303 304 306
294 294 294 294 294 294 294 294 294 294 293 293 293 293 293 293 294 294 295 296 296 296 295 295 295 295 295 295 295 295 295 296 295 295 295 296 296 296 296 296 297 300 303 305 305 305 306 306 306 306 306 305 303 301 300 300 300 300 300 300 300 301 302 302 303 304 304 306 306
294 294 294 293 293 293 293 293 293 293 293 293 293 293 293 294 294 294 295 297 297 296 295 295 295 295 295 295 295 295 295 295 295 295 295 296 296 296 296 296 297 299 303 305 305 305 305 306 306 306 305 304 302 301 300 300 300 300 300 300 301 301 302 303 304 304 305 306 305
294 293 293 293 293 293 293 293 293 293 293 293 293 293 293 294 294 295 295 296 295 295 294 295 295 294 294 294 294 295 295 295 295 295 296 297 296 296 296 296 296 298 301 304 305 305 305 305 306 305 304 302 301 300 300 300 300 300 300 300 301 302 302 303 304 305 306 306 305
294 293 293 293 293 293 293 293 293 293 293 292 293 293 294 294 294 294 295 297 295 294 294 294 294 294 294 294 295 295 295 296 296 296 296 296 296 296 296 296 296 298 300 303 305 305 305 305 305 305 304 302 300 300 299 300 300 300 300 300 301 302 302 304 305 305 305 305 306
293 294 294 293 293 293 293 293 293 292 293 293 293 293 294 294 294 295 295 296 295 294 294 294 294 294 295 296 296 295 295 296 296 296 296 296 296 297 298 297 297 297 300 303 304 304 305 305 305 305 305 303 301 300 299 299 299 300 300 300 301 301 303 304 305 305 304 304 306
294 294 294 293 293 293 293 293 293 293 293 293 293 293 294 294 295 296 296 296 295 295 294 294 294 294 295 297 296 295 295 295 296 296 297 297 297 299 300 298 297 297 299 302 304 304 304 304 305 305 305 303 301 300 300 300 299 299 300 300 301 302 302 304 304 304 304 304 305
294 294 294 294 293 293 293 293 293 293 293 294 294 294 295 295 296 296 295 295 295 295 295 295 294 295 295 297 296 295 295 295 295 296 296 297 298 299 300 298 296 296 297 300 303 304 304 304 304 305 304 303 301 301 300 300 299 299 299 300 301 301 302 303 303 303 303 303 303
Wind_Speed
2 2 3 3 3 3 3 3 3 3 3 3 3 3 3 3 3 3 3 3 3 3 3 4 4 4 5 6 7 7 7 7 7 8 8 9 8 8 8 8 8 8 8 9 9 9 9 9 8 8 7 7 7 7 7 6 7 7 8 8 8 9 10 12 13 14 16 17 15
3 4 4 5 4 4 3 3 3 4 3 3 3 3 3 2 3 3 3 3 3 4 4 4 4 5 6 7 7 7 7 7 7 8 8 9 8 8 8 7 8 8 8 9 9 8 8 9 9 8 8 7 8 8 7 7 7 8 9 10 9 8 9 11 12 14 15 15 14
4 4 4 4 4 4 3 3 3 3 3 3 2 2 2 2 3 3 3 4 4 4 4 4 4 5 6 7 6 6 6 7 7 8 8 8 8 8 8 7 8 8 9 9 8 8 8 9 9 9 8 8 9 8 8 8 8 8 9 10 9 8 8 10 11 12 12 10 11
5 5 5 4 5 4 4 3 3 3 3 2 2 2 2 3 3 3 4 4 4 5 4 5 5 5 5 6 6 7 7 7 8 8 8 8 8 8 9 8 9 9 9 9 9 9 10 10 9 8 9 9 10 9 8 8 8 7 7 8 8 8 9 9 10 10 9 9 9
5 5 4 4 4 4 3 2 3 3 3 2 2 3 3 3 3 4 4 4 4 5 5 5 5 5 5 6 7 7 8 8 9 9 8 8 8 8 9 9 9 9 9 9 10 10 10 11 9 8 9 9 8 8 8 9 9 8 7 7 7 7 8 9 9 8 8 8 9
4 4 4 3 4 3 3 3 3 3 3 3 3 4 4 4 4 4 5 5 5 5 6 7 6 6 6 6 7 8 8 8 8 8 8 8 8 8 9 10 9 9 9 9 10 11 11 10 9 9 9 9 8 8 9 10 9 9 8 8 8 7 8 9 8 8 8 9 11
4 4 4 4 4 4 3 3 3 3 3 3 4 5 6 5 5 6 6 6 5 5 6 6 6 6 6 6 7 8 8 8 8 8 8 8 8 9 9 9 9 10 10 10 10 10 10 9 9 9 9 9 8 9 10 10 9 9 9 10 8 7 7 9 8 8 9 12 14
5 5 5 4 4 4 4 3 3 3 4 4 5 6 7 7 7 7 6 6 5 5 5 4 6 6 7 7 7 8 8 8 8 8 8 8 9 9 9 9 10 10 10 10 10 10 10 9 8 8 9 8 8 9 10 11 11 12 12 12 10 9 8 9 8 9 10 14 16
4 4 4 4 4 4 4 4 4 4 5 5 6 6 7 7 7 7 6 6 5 5 5 5 6 7 8 8 8 8 8 7 7 7 8 8 8 9 9 9 9 10 10 9 10 10 10 9 8 8 8 8 9 9 10 12 13 14 13 12 11 11 11 11 11 12 13 14 17
3 3 3 3 4 4 4 5 5 5 6 6 6 7 7 7 7 6 6 5 5 5 5 5 6 7 8 8 8 8 7 7 7 7 8 8 8 9 9 9 9 10 10 9 9 10 10 9 9 9 9 9 10 11 13 13 14 14 14 11 12 14 15 14 14 14 14 14 16
3 3 3 3 4 4 5 5 5 5 5 6 6 7 7 7 7 6 6 5 6 6 6 6 7 7 7 7 7 7 7 7 7 7 8 8 9 9 9 9 10 10 10 9 9 9 8 8 9 10 11 11 12 12 13 13 14 15 14 13 14 16 16 17 15 14 14 14 17
3 3 3 4 4 5 5 5 4 5 5 6 6 6 6 6 6 6 6 6 7 7 7 6 7 7 7 7 7 7 7 7 7 8 8 9 9 10 10 10 10 10 10 10 9 8 8 8 10 11 13 13 12 11 12 14 14 15 15 16 16 16 17 17 16 15 14 14 17
3 3 3 4 4 5 5 5 4 4 5 6 6 6 6 6 7 7 6 7 7 7 6 6 7 7 7 7 7 7 7 7 8 8 9 9 10 10 10 10 10 10 10 10 9 8 8 9 11 12 13 14 12 12 13 14 15 15 16 16 16 16 17 18 18 17 16 17 18
3 3 3 4 4 4 4 5 4 4 5 6 6 6 6 6 6 6 6 6 7 7 7 7 7 7 7 8 8 8 8 8 8 9 10 10 10 10 10 9 9 9 9 9 9 9 10 10 11 12 13 14 14 14 14 14 15 15 16 17 17 17 18 18 18 17 17 18 19
3 3 4 4 4 4 4 5 4 4 5 6 6 6 6 6 6 6 6 6 6 7 7 7 7 7 8 9 9 9 9 9 9 10 10 10 10 10 10 9 10 9 9 9 9 10 10 11 12 13 13 14 15 15 15 15 15 15 16 17 17 17 17 18 18 17 18 19 20
3 4 4 4 4 4 4 5 4 4 5 5 6 6 6 5 5 5 6 6 6 6 6 7 8 8 8 8 9 9 9 9 9 10 10 10 10 10 10 10 10 10 10 10 10 11 11 11 12 12 13 14 14 15 15 15 15 16 17 17 16 16 16 17 18 18 19 20 21
3 4 3 4 4 5 5 5 4 4 5 6 6 6 6 6 5 5 6 6 6 6 7 8 8 8 8 9 9 8 8 9 9 9 10 10 10 10 10 10 10 10 10 11 11 11 12 12 12 12 13 14 14 14 15 15 15 16 17 17 16 16 16 17 17 18 19 21 22
4 4 4 4 5 5 6 6 5 5 6 6 6 6 6 6 6 6 6 6 7 7 8 8 8 8 8 9 9 8 7 8 9 9 10 10 10 10 10 11 11 11 11 11 11 12 12 13 13 13 12 13 13 13 14 14 15 16 17 17 16 16 16 16 17 18 19 20 22
4 4 4 5 5 6 6 6 6 6 6 6 6 6 6 6 6 6 6 6 7 8 9 9 8 8 8 9 9 8 8 8 9 10 10 10 10 10 11 11 11 11 11 11 11 12 12 13 13 13 13 13 13 13 14 14 15 16 16 16 15 15 15 16 17 17 19 20 22
4 4 4 5 5 6 6 6 6 6 6 6 6 7 7 7 7 7 7 8 8 8 9 9 9 8 8 9 9 9 8 7 9 10 10 10 10 11 11 11 12 12 11 11 11 12 12 12 13 13 13 13 13 14 14 15 16 16 16 14 14 14 15 15 16 17 19 21 22
4 4 5 5 5 6 6 6 6 6 6 6 7 7 7 7 7 8 8 9 8 9 9 9 9 9 9 9 9 9 8 7 8 9 10 10 11 11 12 12 12 11 11 11 11 11 12 12 12 12 12 13 13 14 14 14 15 15 15 13 13 13 14 14 16 17 19 21 22
4 4 5 5 5 6 6 6 6 6 6 7 7 7 7 8 8 8 8 8 8 8 9 9 9 9 9 9 9 9 8 7 8 9 10 10 11 11 11 11 11 11 11 11 11 11 11 11 12 12 12 12 13 13 14 14 15 15 14 13 13 14 14 14 15 16 18 20 22
4 4 5 5 5 6 6 6 6 6 7 7 7 7 8 8 8 8 8 8 8 8 9 9 9 9 9 9 9 9 9 8 9 9 10 10 11 11 11 11 11 11 11 10 10 10 10 10 11 11 11 11 12 13 14 14 14 14 13 14 14 14 14 14 15 16 18 20 21
4 4 4 4 5 5 6 6 6 6 7 7 8 8 8 8 8 8 8 8 8 9 9 8 8 9 9 9 9 9 9 9 10 10 10 10 10 11 11 10 10 10 10 9 9 10 10 9 9 10 10 10 11 11 12 13 13 13 13 13 13 14 14 15 16 17 19 20 20
4 4 4 4 5 5 6 6 6 7 7 7 8 8 8 8 8 8 8 8 9 9 9 9 9 9 9 9 9 9 9 9 10 10 10 10 10 10 10 9 9 8 8 8 12 16 17 17 14 12 10 10 10 11 12 12 13 13 12 12 13 13 14 15 17 19 20 21 20
4 4 5 5 5 6 6 7 7 7 7 7 7 8 8 8 8 8 8 8 9 9 9 9 9 9 8 8 8 9 8 8 9 9 10 10 11 10 10 9 8 7 7 9 14 18 22 23 23 19 15 11 11 11 11 11 12 12 12 12 12 12 13 15 18 20 21 20 20
4 4 5 5 6 6 7 7 7 7 7 7 7 8 8 8 8 8 8 8 9 9 8 8 8 8 8 7 8 9 8 8 8 9 10 10 11 11 10 9 8 7 8 12 17 21 23 24 25 24 20 14 12 11 11 11 11 11 11 11 11 12 13 15 18 20 21 21 21
4 5 5 6 6 7 7 7 7 7 7 8 8 8 8 8 8 8 8 8 9 8 7 7 7 6 6 6 7 9 9 9 9 9 9 10 10 10 10 9 8 8 10 15 20 23 24 24 25 25 24 19 14 11 11 11 10 10 10 10 10 11 13 14 16 18 19 21 21
5 5 6 6 6 7 7 7 7 7 8 8 8 8 8 7 8 8 8 9 9 8 7 6 6 6 6 7 8 9 10 11 10 9 9 9 10 10 9 9 9 11 14 19 22 24 24 24 25 25 25 24 16 11 9 8 9 9 9 8 9 10 11 13 14 16 18 20 20
5 5 6 6 7 7 7 7 7 7 7 7 7 7 7 7 7 8 8 9 9 8 7 7 6 7 8 9 9 9 10 10 10 9 9 9 10 10 10 10 10 11 14 19 22 23 24 24 25 26 26 26 19 13 9 8 8 8 8 8 9 10 12 13 15 17 19 19 19
5 6 6 6 7 7 7 7 7 7 7 7 7 7 7 7 8 7 7 7 7 8 8 8 8 9 10 10 10 10 10 10 10 10 10 10 11 11 11 11 11 12 14 19 22 23 24 25 25 26 26 26 20 14 10 9 8 8 8 9 10 11 12 13 14 16 19 21 20
6 6 6 6 7 7 7 7 7 7 7 7 7 7 7 7 7 7 7 6 7 7 8 8 9 10 11 11 10 10 11 11 10 10 10 10 11 11 11 11 11 12 14 19 22 23 24 25 25 25 26 26 20 15 11 10 9 9 9 10 11 12 13 12 13 16 19 21 19
6 6 6 7 7 7 7 7 7 7 6 6 7 7 7 7 7 7 7 7 7 7 8 8 9 10 10 10 10 11 11 11 11 11 11 11 11 11 11 11 10 11 15 19 22 24 24 25 25 25 26 26 20 14 11 10 9 8 9 10 11 12 13 14 14 16 18 20 17
6 6 7 7 7 7 7 7 6 6 6 6 7 7 7 7 7 7 7 7 6 7 7 8 8 8 9 9 9 10 11 11 11 11 11 11 11 12 11 10 9 11 16 21 23 24 24 25 25 25 25 25 18 13 10 10 9 9 9 10 11 11 12 13 15 17 18 18 15
6 6 7 7 7 6 6 6 6 6 6 6 7 7 7 7 7 7 7 7 7 7 7 7 8 8 8 9 9 9 10 12 11 11 11 11 11 12 12 11 10 13 18 22 23 24 24 24 24 25 24 21 14 10 9 10 10 10 10 11 12 12 13 14 15 16 16 15 14
6 6 6 6 6 6 6 6 6 6 6 7 7 7 7 7 7 7 7 8 8 8 8 8 8 8 8 9 9 9 10 11 12 12 12 12 11 12 12 12 12 14 18 21 23 23 24 24 24 24 23 18 11 9 8 8 8 9 10 11 12 13 13 14 14 14 14 12 13
6 6 6 6 6 6 5 5 6 6 7 7 7 7 7 7 7 7 7 7 7 8 8 8 8 8 8 8 9 9 9 11 11 12 12 12 12 11 12 12 12 14 16 19 21 22 23 23 24 23 20 14 10 8 8 7 7 8 9 11 11 12 13 12 13 12 12 12 14
6 5 5 5 5 5 5 5 6 6 7 7 7 6 6 6 6 7 7 7 7 7 8 8 8 9 9 9 10 10 11 11 11 12 12 13 12 12 12 13 12 12 13 17 20 21 22 23 23 22 19 13 10 8 7 7 7 8 8 9 10 11 11 11 10 10 11 13 16
5 5 5 5 5 5 5 6 6 6 7 7 7 7 7 6 6 6 6 7 7 7 7 8 8 9 10 10 10 11 11 11 12 12 12 12 12 13 14 13 12 11 12 16 19 20 21 22 22 21 19 14 10 8 7 6 7 8 9 9 9 10 11 10 9 9 10 13 18
4 4 4 4 5 5 5 6 6 6 6 6 7 7 7 6 7 7 7 7 7 7 7 8 9 10 11 11 11 11 11 11 11 11 12 12 13 15 16 14 12 11 12 14 17 19 20 21 21 21 19 13 9 7 6 6 7 8 8 8 8 9 9 9 9 9 10 11 15
4 4 4 4 5 5 5 6 6 6 6 6 7 7 6 6 7 7 6 6 7 7 7 8 10 11 11 12 11 11 11 12 11 11 12 12 13 14 14 12 11 10 10 11 15 18 20 21 21 21 19 13 9 7 6 6 7 8 9 9 8 8 9 9 9 9 9 10 11
Wind_Direction
182 201 212 218 222 225 228 232 234 235 235 235 238 240 243 249 258 265 271 275 276 278 278 278 278 278 278 278 279 280 283 285 289 292 293 294 293 293 294 296 298 300 301 302 302 303 302 302 301 299 295 292 288 286 282 278 277 276 274 272 270 268 267 267 268 268 269 268 266
201 212 220 225 227 228 231 232 233 233 232 232 235 241 247 257 266 271 274 274 273 274 275 276 275 274 275 275 276 279 283 287 289 290 290 291 290 292 294 297 299 301 301 302 302 302 301 301 299 297 293 290 288 285 282 277 274 273 273 271 270 269 268 268 268 268 268 268 268
207 214 219 223 226 228 230 232 232 234 237 242 248 255 263 269 271 272 271 268 268 269 270 271 271 271 271 273 276 278 281 284 287 287 288 289 291 294 297 300 301 301 301 300 300 299 298 298 296 294 292 289 287 285 282 279 276 274 273 273 273 271 269 267 266 267 268 269 277
207 213 217 221 226 230 233 237 242 248 254 261 266 269 271 270 269 267 266 265 265 266 265 265 266 267 269 273 276 278 280 282 285 286 288 289 293 296 298 300 301 301 300 299 298 297 295 294 293 291 289 287 285 283 281 280 277 275 273 274 273 271 268 268 268 269 271 276 284
208 211 216 221 229 236 241 245 252 258 263 267 270 271 269 267 264 262 261 261 261 261 262 264 266 269 271 274 277 280 282 283 286 287 288 290 292 294 296 298 298 298 298 297 295 294 292 292 290 289 287 286 284 281 280 279 278 276 275 274 272 271 271 274 275 275 277 283 288
209 216 221 226 234 240 245 246 250 254 257 260 263 264 263 261 259 258 259 259 261 264 268 272 275 277 278 279 281 282 283 284 284 285 286 288 290 292 294 295 295 295 295 294 292 290 290 289 289 288 287 286 283 281 280 280 280 279 277 276 273 273 275 280 281 281 283 287 287
207 215 222 227 231 235 239 240 243 247 250 254 255 256 256 255 256 258 260 264 269 273 276 279 280 280 280 281 281 281 282 282 282 284 285 288 290 291 292 293 293 293 291 290 289 289 288 287 287 287 287 287 286 284 283 282 281 280 279 276 274 273 274 278 279 281 284 287 286
203 209 215 221 225 229 233 236 239 243 247 250 251 253 255 257 260 263 267 273 276 277 278 279 278 277 277 277 277 278 279 280 282 284 286 287 289 290 290 290 290 289 288 287 287 286 286 286 286 286 287 286 286 285 284 282 282 281 279 278 276 275 274 275 276 279 282 286 286
199 204 210 216 220 226 231 234 237 241 245 249 251 255 258 262 265 269 272 275 275 275 276 276 275 274 274 275 275 276 277 279 281 283 284 285 285 286 286 286 287 287 286 285 285 285 285 286 285 285 285 284 284 284 283 283 282 281 280 279 279 280 279 279 279 280 282 284 284
199 202 208 215 222 227 231 236 239 242 247 252 256 259 263 267 269 270 271 271 273 273 273 272 272 272 273 274 275 276 277 278 280 281 282 282 281 281 281 282 283 284 284 284 284 285 286 286 285 284 283 282 282 283 283 283 282 282 281 281 282 283 284 283 282 282 283 283 284
202 205 209 216 223 228 231 236 241 245 249 254 258 261 264 267 269 269 269 269 271 270 270 269 270 271 272 274 276 277 277 278 278 280 280 281 279 279 279 279 281 282 282 283 284 285 286 286 285 284 283 282 283 283 284 284 283 283 282 282 284 285 285 284 283 283 282 282 284
206 211 214 218 221 225 228 232 238 244 248 253 257 260 263 265 265 265 266 266 266 267 267 268 270 271 273 275 275 276 277 276 276 277 279 279 279 278 277 278 279 280 281 282 284 285 285 284 284 284 284 284 284 284 284 285 285 284 284 285 285 285 285 285 285 284 283 283 285
212 217 221 222 224 226 228 232 237 242 247 252 255 258 260 261 261 261 262 262 264 266 268 270 271 272 273 274 273 273 274 274 274 276 277 278 278 278 278 278 278 279 281 282 283 283 283 283 283 284 285 285 285 284 284 285 285 286 286 287 286 285 285 286 286 286 286 286 288
219 225 228 230 230 230 233 237 240 244 249 251 253 255 257 258 258 258 259 260 263 267 270 273 273 274 274 274 273 272 272 272 273 275 275 276 277 278 278 278 278 279 280 282 282 282 282 282 283 283 284 285 285 285 285 286 286 286 286 287 287 286 286 287 288 288 289 290 291
225 230 233 235 235 235 237 240 243 247 250 253 254 255 256 257 258 259 260 261 264 268 272 275 275 275 274 275 274 273 272 271 272 274 275 276 277 277 278 278 278 279 280 281 282 281 281 280 281 282 283 284 285 286 286 286 286 286 286 286 285 286 286 288 290 291 292 293 294
227 232 234 236 237 238 239 241 244 248 251 254 256 257 258 260 261 262 263 263 266 270 272 274 275 275 275 274 273 272 271 271 272 273 275 276 277 277 277 278 278 279 280 280 281 280 279 278 279 279 280 282 284 285 286 286 286 286 286 285 284 285 286 289 291 293 294 296 295
230 234 237 238 240 241 242 244 246 249 253 256 258 260 262 263 263 264 264 263 266 269 270 270 272 274 276 275 274 273 272 273 273 275 276 276 276 276 276 277 278 278 279 279 279 279 278 277 277 277 279 280 282 284 285 286 286 286 286 285 284 285 286 289 292 294 296 297 295
232 236 239 241 243 246 247 249 250 253 255 258 261 262 263 264 264 264 264 264 267 269 271 270 271 272 275 276 276 276 276 276 276 276 276 276 276 276 275 276 276 277 277 277 276 276 276 276 276 277 278 280 281 282 283 284 284 284 284 284 284 284 286 289 292 295 296 296 294
232 237 241 244 247 250 253 256 256 258 259 261 263 264 266 267 267 268 270 270 270 272 273 275 275 275 275 276 276 276 276 276 276 275 275 275 275 275 275 275 275 275 275 274 273 273 273 274 275 276 278 280 281 281 282 282 282 282 282 282 282 283 285 288 292 294 295 295 293
231 236 241 245 249 253 256 258 260 261 263 264 266 268 269 270 271 273 273 274 274 274 275 277 279 279 278 277 276 276 275 275 274 274 274 274 274 273 273 273 273 273 273 273 272 272 272 273 274 276 278 280 281 282 282 282 282 282 282 282 281 283 285 289 293 295 295 294 293
231 236 241 245 249 252 256 259 261 263 266 267 269 270 271 272 273 274 274 274 275 276 277 279 279 279 278 278 277 276 274 274 273 273 273 273 273 272 272 272 272 272 272 271 271 271 271 272 274 276 278 280 281 282 282 283 283 283 283 282 282 283 286 290 294 295 295 294 293
231 236 241 245 249 253 256 260 262 265 267 269 270 271 272 272 273 273 274 275 276 278 279 279 279 278 277 277 276 276 276 276 274 273 273 273 272 272 271 271 271 271 271 271 271 271 272 273 274 276 277 279 280 281 282 283 284 285 285 284 284 286 289 293 296 296 295 293 293
233 237 242 247 251 255 259 261 264 265 267 269 270 271 271 272 273 274 276 277 278 279 279 279 279 278 277 276 276 277 278 279 277 275 273 272 272 272 271 271 271 271 271 271 271 271 271 273 274 275 276 278 280 282 283 285 287 287 288 287 288 290 294 297 298 297 296 294 293
234 239 244 248 253 256 259 262 264 265 267 268 270 271 271 273 274 276 278 279 279 279 279 280 280 280 280 279 279 279 279 280 279 278 276 274 273 272 272 272 272 272 271 271 270 271 272 274 275 276 278 281 283 285 286 288 289 290 290 290 293 296 299 302 302 300 298 295 294
237 242 247 250 254 257 260 262 264 265 266 267 269 271 272 274 275 277 278 279 279 280 281 281 282 284 285 285 284 282 280 279 279 279 278 277 275 274 274 274 273 272 271 270 273 277 280 285 287 288 289 289 290 290 291 291 291 291 292 293 296 300 303 306 305 302 299 297 295
240 246 250 253 256 259 261 262 263 265 266 267 270 271 273 275 276 277 279 280 281 282 284 285 286 288 288 288 287 285 283 280 279 279 279 279 279 278 277 276 275 273 271 271 277 283 288 292 294 296 297 297 296 295 294 293 293 293 293 294 297 301 305 307 306 303 301 298 296
243 248 251 255 258 260 261 262 264 265 267 268 270 271 273 274 277 279 280 282 284 286 287 289 289 290 290 289 289 288 286 284 282 281 280 279 280 280 279 279 277 274 274 277 284 289 293 296 298 300 301 300 298 296 295 295 295 295 296 297 299 302 305 306 303 302 300 299 298
243 248 252 256 258 261 262 263 265 266 267 268 269 271 273 275 278 281 283 286 288 290 291 291 291 291 292 292 290 289 288 287 286 284 282 281 281 281 281 282 281 280 282 287 292 295 297 299 300 301 302 301 299 296 295 295 296 297 297 297 299 301 303 303 300 299 299 299 299
245 249 253 256 258 260 262 264 265 266 266 268 269 272 275 278 281 284 287 289 291 292 293 293 293 293 293 292 291 290 290 290 288 287 286 285 285 285 285 286 286 287 290 293 296 298 299 300 301 302 302 303 301 299 297 296 297 297 297 296 297 298 298 298 297 298 298 299 300
247 251 254 256 259 261 262 263 264 265 266 268 271 274 278 282 285 287 289 291 292 292 293 294 294 294 293 292 292 293 293 292 292 292 291 291 291 290 289 290 289 290 293 296 298 299 300 301 302 302 302 303 302 300 298 297 296 296 296 294 294 293 292 293 294 296 298 300 300
249 252 255 258 260 262 263 263 264 265 267 270 274 278 282 286 288 289 290 291 291 292 293 293 293 293 292 293 294 294 295 295 295 295 294 293 293 292 291 291 291 291 294 297 299 300 301 301 302 302 303 303 303 302 300 298 297 296 294 292 291 290 290 290 292 295 297 299 300
250 253 256 259 261 262 263 263 265 267 270 275 279 283 286 287 287 288 289 290 291 293 294 294 294 294 294 295 295 296 296 296 296 294 293 291 291 291 292 292 292 293 295 298 300 300 301 301 302 303 304 305 304 303 301 299 297 294 292 289 288 288 289 291 293 295 296 298 299
250 253 255 257 259 261 262 264 267 271 276 281 284 287 288 288 288 289 290 291 292 293 293 293 294 295 295 296 296 296 296 295 294 293 292 292 292 293 294 294 294 294 296 298 300 300 301 302 303 304 305 306 305 303 301 298 295 293 290 288 287 288 289 291 292 294 295 296 297
248 251 253 255 257 260 262 266 270 276 281 285 286 287 288 288 289 290 291 291 292 292 292 292 293 294 294 295 295 295 295 296 295 294 294 294 295 295 296 296 294 294 296 299 300 301 302 303 305 305 305 306 304 302 299 297 294 291 290 289 288 289 290 292 292 293 293 294 297
246 249 252 255 257 261 265 270 276 281 285 287 287 287 287 287 288 289 291 292 293 293 293 293 293 293 293 293 294 294 295 296 296 296 296 296 297 297 296 296 293 294 297 299 301 302 303 304 305 305 305 305 303 300 296 294 293 291 291 290 291 292 292 293 293 292 292 293 300
245 249 253 257 260 265 270 276 281 284 286 287 287 287 287 287 287 289 290 293 294 294 293 294 294 294 294 294 294 294 295 296 297 298 298 298 298 297 296 296 294 295 297 299 301 302 304 304 305 305 305 304 301 297 295 293 292 291 291 292 293 293 294 294 292 292 292 296 303
246 250 254 259 264 269 274 279 283 285 285 285 285 286 286 287 288 289 291 293 294 293 293 294 294 294 294 294 294 295 295 296 297 298 298 298 298 297 296 295 294 294 295 298 300 302 303 304 304 305 304 303 300 298 296 294 292 292 292 292 293 293 294 293 292 293 295 300 305
248 252 256 261 267 272 276 280 282 283 283 284 284 285 287 288 289 290 291 293 293 293 293 293 293 293 294 295 295 295 296 296 296 297 297 297 297 296 295 294 293 293 294 297 299 302 303 304 305 305 305 303 303 301 299 296 294 292 292 293 293 294 294 293 293 295 299 303 305
250 253 257 263 268 273 276 279 280 280 282 283 284 286 287 288 288 289 290 291 291 291 292 293 293 294 295 297 297 297 297 296 295 295 296 296 296 296 296 295 294 293 294 296 300 302 304 306 306 307 308 307 307 305 301 297 295 293 294 294 295 295 295 294 294 297 300 302 305
251 254 258 262 267 271 274 277 279 279 281 283 284 286 286 287 287 289 290 291 290 291 292 293 294 296 297 299 299 298 297 296 294 294 294 295 295 296 297 295 294 293 294 297 301 304 307 309 310 312 313 311 311 308 303 299 297 296 296 296 297 297 297 296 296 298 300 301 304
253 256 259 262 266 270 273 277 279 280 281 282 283 283 285 287 288 289 290 291 291 292 293 294 296 297 298 299 298 297 297 296 295 294 294 295 294 295 295 293 292 293 295 298 305 309 312 314 315 316 316 315 312 308 305 302 301 300 300 299 299 298 298 298 299 300 301 302 303